Tracking 18823 objects as of 20-October-2017
HD Live streaming from Space Station
objects crossing your sky now

ATLAS CENTAUR DEB

Track ATLAS CENTAUR DEB now!


NORAD ID: 25253
Int'l Code: 1978-068C
Perigee: 859.9 km
Apogee: 35,601.4 km
Inclination: 22.1 °
Period: 640.0 minutes
Semi major axis: 24601 km
RCS: 0.1092 m2 (medium)
Launch date: June 29, 1978
Source: United States (US)
Launch site: AIR FORCE EASTERN TEST RANGE (AFETR)

Note: This is SATELLITE DEBRIS
aabbcc
Your satellite tracking list
Your tracking list is empty





NASA's NSSDC Master Catalog

Two Line Element Set (TLE):
1 25253U 78068C   17292.64123365 -.00000254 +00000-0 +42905-3 0  9992
2 25253 022.0741 009.6147 7060820 042.4479 004.4976 02.24986938166751
Source of the keplerian elements: AFSPC